Terminal Aerodrome Forecast
Issued by NWS Billings, MT

Home | Current Version | Previous Version | Text Only | Print | Product List | Glossary Off
Versions: 1 2 3 4 5 6 7 8 9 10 11 12 13 14 15 16 17 18 19 20 21 22 23 24 25 26 27 28 29 30 31 32 33 34 35

000
FTUS45 KBYZ 290702 AAA
TAFMLS
TAF AMD
KMLS 290702Z 2907/3006 30020G35KT P6SM BKN050
     FM291100 31016KT P6SM SCT050 SCT200
     FM291900 27013KT P6SM SCT050 SCT200=

USA.gov is the U.S. government's official web portal to all federal, state and local government web resources and services.